| time (UTC) | temp F | wind direction | speed MPH | gust MPH | rain 1hr in | rain 24hr in | rain mn in | humidity % | barometer mb |
| 20260504174906 | 73 | 257 | 5.0 | 9.0 | 0.00 | 0.00 | 0.00 | 28 | 1013.7 |
| 20260504174404 | 73 | 289 | 9.0 | 14.0 | 0.00 | 0.00 | 0.00 | 27 | 1013.6 |
| 20260504173901 | 73 | 303 | 7.0 | 10.0 | 0.00 | 0.00 | 0.00 | 27 | 1013.7 |
| 20260504173357 | 73 | 63 | 1.0 | 2.0 | 0.00 | 0.00 | 0.00 | 27 | 1013.8 |
| 20260504172854 | 73 | 243 | 14.0 | 17.0 | 0.00 | 0.00 | 0.00 | 27 | 1013.9 |
| 20260504172351 | 72 | 342 | 4.0 | 5.0 | 0.00 | 0.00 | 0.00 | 27 | 1013.9 |
| 20260504171847 | 73 | 268 | 6.0 | 7.0 | 0.00 | 0.00 | 0.00 | 27 | 1014.0 |
| 20260504171344 | 72 | 327 | 10.0 | 14.0 | 0.00 | 0.00 | 0.00 | 28 | 1014.1 |
| 20260504170841 | 72 | 332 | 7.0 | 9.0 | 0.00 | 0.00 | 0.00 | 26 | 1014.2 |
| 20260504170338 | 72 | 291 | 7.0 | 10.0 | 0.00 | 0.00 | 0.00 | 28 | 1014.1 |
| 20260504160256 | 70 | 280 | 4.0 | 5.0 | 0.00 | 0.00 | 0.00 | 29 | 1014.9 |
| 20260504150722 | 68 | 311 | 9.0 | 14.0 | 0.00 | 0.00 | 0.00 | 37 | 1015.3 |
| 20260504150218 | 67 | 290 | 9.0 | 10.0 | 0.00 | 0.00 | 0.00 | 39 | 1015.3 |
| 20260504141148 | 65 | 216 | 4.0 | 7.0 | 0.00 | 0.00 | 0.00 | 45 | 1015.3 |
| 20260504140644 | 65 | 306 | 8.0 | 12.0 | 0.00 | 0.00 | 0.00 | 45 | 1015.4 |
| 20260504140140 | 65 | 267 | 6.0 | 9.0 | 0.00 | 0.00 | 0.00 | 47 | 1015.4 |
| 20260504130608 | 62 | 251 | 5.0 | 5.0 | 0.00 | 0.00 | 0.00 | 55 | 1016.2 |
| 20260504130105 | 62 | 178 | 11.0 | 12.0 | 0.00 | 0.00 | 0.00 | 56 | 1016.2 |
| 20260504110456 | 54 | 175 | 0.0 | 0.0 | 0.00 | 0.00 | 0.00 | 82 | 1016.8 |
| 20260504100418 | 55 | 195 | 3.0 | 3.0 | 0.00 | 0.00 | 0.00 | 81 | 1016.6 |
| 20260504081811 | 53 | 291 | 0.0 | 2.0 | 0.00 | 0.00 | 0.00 | 79 | 1016.9 |
| 20260504081308 | 53 | 204 | 4.0 | 5.0 | 0.00 | 0.00 | 0.00 | 79 | 1016.8 |
| 20260504080804 | 53 | 223 | 6.0 | 7.0 | 0.00 | 0.00 | 0.00 | 79 | 1016.8 |
| 20260504080301 | 52 | 289 | 2.0 | 3.0 | 0.00 | 0.00 | 0.00 | 79 | 1016.9 |
| 20260504070228 | 51 | 160 | 3.0 | 3.0 | 0.00 | 0.00 | 0.00 | 74 | 1017.1 |
| 20260504060149 | 47 | 26 | 0.0 | 0.0 | 0.00 | 0.00 | 0.00 | 77 | 1017.1 |
| 20260504050617 | 39 | 44 | 0.0 | 0.0 | 0.00 | 0.00 | 0.00 | 76 | 1017.1 |
| 20260504050114 | 39 | 46 | 0.0 | 0.0 | 0.00 | 0.00 | 0.00 | 76 | 1017.1 |
| 20260504045611 | 39 | 51 | 0.0 | 0.0 | 0.00 | 0.00 | 0.00 | 76 | 1017.1 |
| 20260504045106 | 40 | 53 | 0.0 | 0.0 | 0.00 | 0.00 | 0.00 | 76 | 1017.3 |
| 20260504044604 | 39 | 48 | 0.0 | 0.0 | 0.00 | 0.00 | 0.00 | 76 | 1017.2 |
| 20260504044100 | 40 | 50 | 0.0 | 0.0 | 0.00 | 0.00 | 0.00 | 76 | 1017.1 |
| 20260504043558 | 40 | 57 | 0.0 | 0.0 | 0.00 | 0.00 | 0.00 | 76 | 1017.1 |
| 20260504043055 | 39 | 62 | 0.0 | 0.0 | 0.00 | 0.00 | 0.00 | 76 | 1017.0 |
| 20260504042552 | 40 | 53 | 0.0 | 0.0 | 0.00 | 0.00 | 0.00 | 75 | 1017.1 |
| 20260504042049 | 40 | 67 | 0.0 | 0.0 | 0.00 | 0.00 | 0.00 | 76 | 1017.1 |
| 20260504041545 | 40 | 62 | 0.0 | 0.0 | 0.00 | 0.00 | 0.00 | 75 | 1016.9 |
| 20260504041041 | 39 | 53 | 0.0 | 0.0 | 0.00 | 0.00 | 0.00 | 74 | 1017.1 |
| 20260504040538 | 39 | 42 | 0.0 | 0.0 | 0.00 | 0.00 | 0.00 | 74 | 1017.0 |
| 20260504040035 | 40 | 41 | 0.0 | 0.0 | 0.00 | 0.00 | 0.00 | 74 | 1016.8 |
| 20260504035532 | 40 | 42 | 0.0 | 0.0 | 0.00 | 0.00 | 0.00 | 74 | 1016.8 |
| 20260504035028 | 40 | 50 | 0.0 | 0.0 | 0.00 | 0.00 | 0.00 | 73 | 1016.7 |
| 20260504034526 | 39 | 42 | 0.0 | 0.0 | 0.00 | 0.00 | 0.00 | 73 | 1016.7 |
| 20260504034023 | 40 | 41 | 0.0 | 0.0 | 0.00 | 0.00 | 0.00 | 73 | 1016.6 |
| 20260504033521 | 40 | 52 | 0.0 | 0.0 | 0.00 | 0.00 | 0.00 | 73 | 1016.6 |
| 20260504033018 | 40 | 56 | 0.0 | 0.0 | 0.00 | 0.00 | 0.00 | 73 | 1016.6 |
| 20260504032515 | 40 | 47 | 0.0 | 0.0 | 0.00 | 0.00 | 0.00 | 72 | 1016.5 |
| 20260504032011 | 41 | 50 | 0.0 | 0.0 | 0.00 | 0.00 | 0.00 | 72 | 1016.6 |
| 20260504031509 | 41 | 57 | 0.0 | 0.0 | 0.00 | 0.00 | 0.00 | 72 | 1016.4 |
| 20260504031005 | 40 | 51 | 0.0 | 0.0 | 0.00 | 0.00 | 0.00 | 71 | 1016.4 |
| 20260504030502 | 40 | 63 | 0.0 | 0.0 | 0.00 | 0.00 | 0.00 | 71 | 1016.5 |
| 20260504025958 | 40 | 48 | 0.0 | 0.0 | 0.00 | 0.00 | 0.00 | 69 | 1016.4 |
| 20260504025455 | 40 | 49 | 0.0 | 0.0 | 0.00 | 0.00 | 0.00 | 69 | 1016.3 |
| 20260504024952 | 41 | 48 | 0.0 | 0.0 | 0.00 | 0.00 | 0.00 | 69 | 1016.4 |
| 20260504024449 | 41 | 61 | 0.0 | 0.0 | 0.00 | 0.00 | 0.00 | 69 | 1016.5 |
| 20260504023946 | 41 | 54 | 0.0 | 0.0 | 0.00 | 0.00 | 0.00 | 68 | 1016.4 |
| 20260504023443 | 41 | 57 | 0.0 | 0.0 | 0.00 | 0.00 | 0.00 | 68 | 1016.4 |
| 20260504022938 | 41 | 57 | 0.0 | 0.0 | 0.00 | 0.00 | 0.00 | 68 | 1016.5 |
| 20260504022435 | 42 | 54 | 0.0 | 0.0 | 0.00 | 0.00 | 0.00 | 68 | 1016.5 |
| 20260504021931 | 42 | 56 | 0.0 | 0.0 | 0.00 | 0.00 | 0.00 | 68 | 1016.4 |
| 20260504021429 | 42 | 45 | 0.0 | 0.0 | 0.00 | 0.00 | 0.00 | 68 | 1016.4 |
| 20260504020926 | 42 | 72 | 0.0 | 0.0 | 0.00 | 0.00 | 0.00 | 67 | 1016.4 |
| 20260504020422 | 42 | 63 | 0.0 | 0.0 | 0.00 | 0.00 | 0.00 | 67 | 1016.6 |
| 20260504015919 | 42 | 54 | 0.0 | 0.0 | 0.00 | 0.00 | 0.00 | 65 | 1016.4 |
| 20260504015415 | 42 | 50 | 0.0 | 0.0 | 0.00 | 0.00 | 0.00 | 65 | 1016.3 |
| 20260504014911 | 43 | 44 | 0.0 | 0.0 | 0.00 | 0.00 | 0.00 | 65 | 1016.0 |
| 20260504014407 | 43 | 42 | 0.0 | 0.0 | 0.00 | 0.00 | 0.00 | 65 | 1016.3 |
| 20260504013904 | 43 | 50 | 0.0 | 0.0 | 0.00 | 0.00 | 0.00 | 64 | 1016.3 |
| 20260504013402 | 43 | 57 | 0.0 | 0.0 | 0.00 | 0.00 | 0.00 | 64 | 1016.1 |
| 20260504012858 | 44 | 58 | 0.0 | 0.0 | 0.00 | 0.00 | 0.00 | 63 | 1016.0 |
| 20260504012356 | 44 | 56 | 0.0 | 0.0 | 0.00 | 0.00 | 0.00 | 62 | 1016.1 |
| 20260504011854 | 44 | 52 | 0.0 | 0.0 | 0.00 | 0.00 | 0.00 | 62 | 1016.2 |
| 20260504011350 | 44 | 64 | 0.0 | 0.0 | 0.00 | 0.00 | 0.00 | 62 | 1016.2 |
| 20260504010846 | 44 | 60 | 0.0 | 0.0 | 0.00 | 0.00 | 0.00 | 62 | 1016.0 |
| 20260504010342 | 44 | 48 | 0.0 | 0.0 | 0.00 | 0.00 | 0.00 | 62 | 1015.9 |
| 20260504005839 | 44 | 47 | 0.0 | 0.0 | 0.00 | 0.00 | 0.00 | 59 | 1016.1 |
| 20260504005336 | 45 | 49 | 0.0 | 0.0 | 0.00 | 0.00 | 0.00 | 57 | 1015.9 |
| 20260504004833 | 46 | 50 | 0.0 | 0.0 | 0.00 | 0.00 | 0.00 | 56 | 1015.7 |
| 20260504004331 | 47 | 52 | 0.0 | 0.0 | 0.00 | 0.00 | 0.00 | 57 | 1015.8 |
| 20260504003827 | 47 | 55 | 0.0 | 0.0 | 0.00 | 0.00 | 0.00 | 58 | 1015.7 |
| 20260504003324 | 48 | 59 | 0.0 | 0.0 | 0.00 | 0.00 | 0.00 | 56 | 1015.8 |
| 20260504002821 | 48 | 55 | 0.0 | 0.0 | 0.00 | 0.00 | 0.00 | 55 | 1015.5 |
| 20260504002317 | 49 | 48 | 0.0 | 0.0 | 0.00 | 0.00 | 0.00 | 52 | 1015.6 |
| 20260504001815 | 50 | 36 | 0.0 | 0.0 | 0.00 | 0.00 | 0.00 | 52 | 1015.6 |
| 20260504001312 | 50 | 40 | 0.0 | 0.0 | 0.00 | 0.00 | 0.00 | 50 | 1015.6 |
| 20260504000809 | 51 | 42 | 0.0 | 0.0 | 0.00 | 0.00 | 0.00 | 48 | 1015.2 |
| 20260504000306 | 52 | 43 | 0.0 | 0.0 | 0.00 | 0.00 | 0.00 | 45 | 1015.4 |
| 20260503235804 | 53 | 47 | 0.0 | 0.0 | 0.00 | 0.00 | 0.00 | 45 | 1015.4 |
| 20260503235301 | 55 | 47 | 0.0 | 0.0 | 0.00 | 0.00 | 0.00 | 43 | 1015.2 |
| 20260503234759 | 56 | 41 | 0.0 | 0.0 | 0.00 | 0.00 | 0.00 | 43 | 1015.0 |
| 20260503234256 | 57 | 334 | 1.0 | 2.0 | 0.00 | 0.00 | 0.00 | 39 | 1015.1 |
| 20260503233754 | 57 | 19 | 0.0 | 2.0 | 0.00 | 0.00 | 0.00 | 38 | 1015.3 |
| 20260503233249 | 58 | 17 | 1.0 | 2.0 | 0.00 | 0.00 | 0.00 | 38 | 1014.9 |
| 20260503232746 | 58 | 29 | 0.0 | 0.0 | 0.00 | 0.00 | 0.00 | 37 | 1015.2 |
| 20260503232243 | 59 | 357 | 0.0 | 0.0 | 0.00 | 0.00 | 0.00 | 36 | 1015.2 |
| 20260503231741 | 59 | 334 | 2.0 | 2.0 | 0.00 | 0.00 | 0.00 | 34 | 1015.3 |
| 20260503231238 | 59 | 51 | 0.0 | 0.0 | 0.00 | 0.00 | 0.00 | 35 | 1015.0 |
| 20260503230734 | 60 | 65 | 1.0 | 2.0 | 0.00 | 0.00 | 0.00 | 34 | 1015.2 |
| 20260503230232 | 60 | 13 | 2.0 | 3.0 | 0.00 | 0.00 | 0.00 | 34 | 1015.3 |
| 20260503225729 | 60 | 279 | 2.0 | 2.0 | 0.00 | 0.00 | 0.00 | 34 | 1015.3 |
| 20260503225229 | 61 | 301 | 5.0 | 7.0 | 0.00 | 0.00 | 0.00 | 33 | 1015.0 |
| 20260503224726 | 61 | 280 | 5.0 | 9.0 | 0.00 | 0.00 | 0.00 | 32 | 1015.0 |
| 20260503224224 | 61 | 267 | 7.0 | 10.0 | 0.00 | 0.00 | 0.00 | 31 | 1015.2 |
| 20260503223721 | 61 | 283 | 4.0 | 10.0 | 0.00 | 0.00 | 0.00 | 31 | 1015.1 |
| 20260503223219 | 62 | 39 | 0.0 | 0.0 | 0.00 | 0.00 | 0.00 | 32 | 1015.2 |
| 20260503222715 | 61 | 45 | 3.0 | 5.0 | 0.00 | 0.00 | 0.00 | 31 | 1014.9 |
| 20260503222213 | 62 | 317 | 7.0 | 12.0 | 0.00 | 0.00 | 0.00 | 30 | 1015.2 |
| 20260503221711 | 62 | 341 | 3.0 | 3.0 | 0.00 | 0.00 | 0.00 | 30 | 1015.2 |
| 20260503221209 | 62 | 282 | 5.0 | 7.0 | 0.00 | 0.00 | 0.00 | 31 | 1015.2 |
| 20260503220705 | 62 | 13 | 10.0 | 14.0 | 0.00 | 0.00 | 0.00 | 30 | 1015.3 |
| 20260503220201 | 62 | 264 | 5.0 | 7.0 | 0.00 | 0.00 | 0.00 | 31 | 1015.1 |
| 20260503215658 | 62 | 277 | 5.0 | 7.0 | 0.00 | 0.00 | 0.00 | 31 | 1015.1 |
| 20260503215155 | 62 | 285 | 9.0 | 12.0 | 0.00 | 0.00 | 0.00 | 31 | 1015.3 |
| 20260503214654 | 62 | 293 | 11.0 | 15.0 | 0.00 | 0.00 | 0.00 | 31 | 1015.1 |
| 20260503214149 | 61 | 282 | 5.0 | 7.0 | 0.00 | 0.00 | 0.00 | 32 | 1015.0 |
| 20260503213649 | 62 | 317 | 5.0 | 9.0 | 0.00 | 0.00 | 0.00 | 32 | 1015.0 |
| 20260503213145 | 61 | 44 | 10.0 | 17.0 | 0.00 | 0.00 | 0.00 | 31 | 1015.0 |
| 20260503212643 | 62 | 252 | 13.0 | 15.0 | 0.00 | 0.00 | 0.00 | 31 | 1015.1 |
| 20260503212140 | 63 | 327 | 3.0 | 5.0 | 0.00 | 0.00 | 0.00 | 30 | 1015.1 |
| 20260503211638 | 62 | 252 | 4.0 | 7.0 | 0.00 | 0.00 | 0.00 | 30 | 1015.0 |
| 20260503211132 | 62 | 283 | 9.0 | 14.0 | 0.00 | 0.00 | 0.00 | 30 | 1015.0 |
| 20260503210629 | 62 | 337 | 3.0 | 7.0 | 0.00 | 0.00 | 0.00 | 31 | 1015.0 |
| 20260503210126 | 62 | 232 | 2.0 | 3.0 | 0.00 | 0.00 | 0.00 | 32 | 1015.3 |
| 20260503205622 | 61 | 347 | 10.0 | 12.0 | 0.00 | 0.00 | 0.00 | 32 | 1015.1 |
| 20260503205118 | 61 | 9 | 7.0 | 10.0 | 0.00 | 0.00 | 0.00 | 32 | 1015.1 |
| 20260503204615 | 62 | 74 | 5.0 | 9.0 | 0.00 | 0.00 | 0.00 | 32 | 1015.0 |
| 20260503204113 | 61 | 57 | 5.0 | 9.0 | 0.00 | 0.00 | 0.00 | 32 | 1015.1 |
| 20260503203609 | 61 | 12 | 17.0 | 19.0 | 0.00 | 0.00 | 0.00 | 30 | 1015.2 |
| 20260503203107 | 61 | 21 | 12.0 | 17.0 | 0.00 | 0.00 | 0.00 | 31 | 1015.4 |
| 20260503202604 | 61 | 351 | 13.0 | 19.0 | 0.00 | 0.00 | 0.00 | 31 | 1015.3 |
| 20260503202102 | 62 | 314 | 7.0 | 10.0 | 0.00 | 0.00 | 0.00 | 30 | 1015.2 |
| 20260503201600 | 62 | 287 | 5.0 | 10.0 | 0.00 | 0.00 | 0.00 | 31 | 1015.4 |
| 20260503201057 | 62 | 244 | 15.0 | 26.0 | 0.00 | 0.00 | 0.00 | 30 | 1015.6 |
| 20260503200553 | 62 | 311 | 5.0 | 7.0 | 0.00 | 0.00 | 0.00 | 31 | 1015.4 |
| 20260503200050 | 61 | 277 | 5.0 | 5.0 | 0.00 | 0.00 | 0.00 | 32 | 1015.4 |
| 20260503195547 | 61 | 252 | 8.0 | 15.0 | 0.00 | 0.00 | 0.00 | 33 | 1015.4 |
| 20260503195044 | 61 | 288 | 8.0 | 10.0 | 0.00 | 0.00 | 0.00 | 32 | 1015.5 |
| 20260503194541 | 61 | 36 | 12.0 | 17.0 | 0.00 | 0.00 | 0.00 | 32 | 1015.5 |
| 20260503194041 | 61 | 69 | 7.0 | 9.0 | 0.00 | 0.00 | 0.00 | 31 | 1015.8 |
| 20260503193538 | 60 | 325 | 10.0 | 24.0 | 0.00 | 0.00 | 0.00 | 32 | 1015.9 |
| 20260503193033 | 59 | 7 | 7.0 | 10.0 | 0.00 | 0.00 | 0.00 | 32 | 1015.7 |
| 20260503192529 | 60 | 22 | 5.0 | 9.0 | 0.00 | 0.00 | 0.00 | 33 | 1015.9 |
| 20260503192025 | 61 | 301 | 13.0 | 15.0 | 0.00 | 0.00 | 0.00 | 31 | 1015.7 |
| 20260503191522 | 60 | 330 | 6.0 | 7.0 | 0.00 | 0.00 | 0.00 | 31 | 1016.0 |
| 20260503191019 | 60 | 24 | 28.0 | 34.0 | 0.00 | 0.00 | 0.00 | 31 | 1016.0 |
| 20260503190516 | 60 | 292 | 15.0 | 17.0 | 0.00 | 0.00 | 0.00 | 31 | 1016.1 |
| 20260503190014 | 60 | 69 | 9.0 | 12.0 | 0.00 | 0.00 | 0.00 | 32 | 1016.0 |
| 20260503185510 | 60 | 313 | 6.0 | 14.0 | 0.00 | 0.00 | 0.00 | 31 | 1016.1 |
| 20260503185009 | 61 | 308 | 13.0 | 19.0 | 0.00 | 0.00 | 0.00 | 30 | 1015.9 |
| 20260503184506 | 60 | 40 | 7.0 | 9.0 | 0.00 | 0.00 | 0.00 | 31 | 1015.9 |
| 20260503184002 | 60 | 308 | 9.0 | 10.0 | 0.00 | 0.00 | 0.00 | 30 | 1016.2 |
| 20260503183459 | 59 | 346 | 5.0 | 7.0 | 0.00 | 0.00 | 0.00 | 32 | 1016.2 |
| 20260503182956 | 58 | 300 | 11.0 | 15.0 | 0.00 | 0.00 | 0.00 | 32 | 1016.3 |
| 20260503182455 | 60 | 325 | 8.0 | 9.0 | 0.00 | 0.00 | 0.00 | 32 | 1016.4 |
| 20260503181952 | 60 | 284 | 5.0 | 9.0 | 0.00 | 0.00 | 0.00 | 30 | 1016.4 |
| 20260503181449 | 59 | 16 | 6.0 | 10.0 | 0.00 | 0.00 | 0.00 | 32 | 1016.5 |
| 20260503180945 | 59 | 299 | 5.0 | 9.0 | 0.00 | 0.00 | 0.00 | 31 | 1016.4 |
| 20260503180443 | 58 | 61 | 5.0 | 9.0 | 0.00 | 0.00 | 0.00 | 31 | 1016.5 |
| 20260503175940 | 59 | 25 | 5.0 | 9.0 | 0.00 | 0.00 | 0.00 | 29 | 1016.2 |
| 20260503175438 | 58 | 224 | 6.0 | 10.0 | 0.00 | 0.00 | 0.00 | 32 | 1016.4 |